CAPE
0 0 0 0 0 0 0 0 0 0 0 0 0 0 0 0 0 0 0 0 0 0 0 0 0 0 0 0 0 0 0 0 0 0 0 0 0 0 0 0 0 0 0 0 0
0 0 0 0 0 0 0 0 0 0 0 0 0 0 0 0 0 0 0 0 0 0 0 0 0 0 0 0 0 0 0 0 0 0 0 0 0 0 0 0 0 0 0 0 0
0 0 0 0 0 0 0 0 0 0 0 0 0 0 0 0 0 0 0 0 0 0 0 0 0 0 0 0 0 0 0 0 0 0 0 0 0 0 0 0 0 0 0 0 0
0 0 0 0 0 0 0 0 0 0 0 0 0 0 0 0 0 0 0 0 0 0 0 0 0 0 0 0 0 0 0 0 0 0 0 0 0 0 0 0 0 0 0 0 0
0 0 0 0 0 0 0 0 0 0 0 0 0 0 0 0 0 0 0 0 0 0 0 0 0 0 0 0 0 0 0 0 0 0 0 0 0 0 0 0 0 0 0 0 0
0 0 0 0 0 0 0 0 0 0 0 0 0 0 0 0 0 0 0 0 0 0 0 0 0 0 0 0 0 0 0 0 0 0 0 0 0 0 0 0 0 0 0 0 0
0 0 0 0 0 0 0 0 0 0 0 0 0 0 0 0 0 0 0 0 0 0 0 0 0 0 0 0 0 0 0 0 0 0 0 0 0 0 0 0 0 0 0 0 0
0 0 0 0 0 0 0 0 0 0 0 0 0 0 0 0 0 0 0 0 0 0 0 0 0 0 0 0 0 0 0 0 0 0 0 0 0 0 0 0 0 0 0 0 0
0 0 0 0 0 0 0 0 0 0 0 0 0 0 0 0 0 0 0 0 0 0 0 0 0 0 0 0 0 0 0 0 0 0 0 0 0 0 0 0 0 0 0 0 0
0 0 0 0 0 0 0 0 0 0 0 0 0 0 0 0 0 0 0 0 0 0 0 0 0 0 0 0 0 0 0 0 0 0 0 0 0 0 0 0 0 0 0 0 0
0 0 0 0 0 0 0 0 0 0 0 0 0 0 0 0 0 0 0 0 0 0 0 0 0 0 0 0 0 0 0 0 0 0 0 0 0 0 0 0 0 0 0 0 0
0 0 0 0 0 0 0 0 0 0 0 0 0 0 0 0 0 0 0 0 0 0 0 0 0 0 0 0 0 0 0 0 0 0 0 0 0 0 0 0 0 0 0 0 0
0 0 0 0 0 0 0 0 0 0 0 0 0 0 0 0 0 0 0 0 0 0 0 0 0 0 0 0 0 0 0 0 0 0 0 0 0 0 0 0 0 0 0 0 0
0 0 0 0 0 0 0 0 0 0 0 0 0 0 0 0 0 0 0 0 0 0 0 0 0 0 0 0 0 0 0 0 0 0 0 0 0 0 0 0 0 0 0 0 0
0 0 0 0 0 0 0 0 0 0 0 0 0 0 0 0 0 0 0 0 0 0 0 0 0 0 0 0 0 0 0 0 0 0 0 0 0 0 0 0 0 0 0 0 0
0 0 0 0 0 0 0 0 0 0 0 0 0 0 0 0 0 0 0 0 0 0 0 0 0 0 0 0 0 0 0 0 0 0 0 0 0 0 0 0 0 0 0 0 0
0 0 0 0 0 0 0 0 0 0 0 0 0 0 0 0 0 0 0 0 0 0 0 0 0 0 0 0 0 0 0 0 0 0 0 0 0 0 0 0 0 0 0 0 0
0 0 0 0 0 0 0 0 0 0 0 0 0 0 0 0 0 0 0 0 0 0 0 0 0 0 0 0 0 0 0 0 0 0 0 0 0 0 0 0 0 0 0 0 0
0 0 0 0 0 0 0 0 0 0 0 0 0 0 0 0 0 0 0 0 0 0 0 0 0 0 0 0 0 0 0 0 0 0 0 0 0 0 0 0 0 0 0 0 0
0 0 0 0 0 0 0 0 0 0 0 0 0 0 0 0 0 0 0 0 0 0 0 0 0 0 0 0 0 0 0 0 0 0 0 0 0 0 0 0 0 0 0 0 0
0 0 0 0 0 0 0 0 0 0 0 0 0 0 0 0 0 0 0 0 0 0 0 0 0 0 0 0 0 0 0 0 0 0 0 0 0 0 0 0 0 0 0 0 0
0 0 0 0 0 0 0 0 0 0 0 0 0 0 0 0 0 0 0 0 0 0 0 0 0 0 0 0 0 0 0 0 0 0 0 0 0 0 0 0 0 0 0 0 0
0 0 0 0 0 0 0 0 0 0 0 0 0 0 0 0 0 0 0 0 0 0 0 0 0 0 0 0 0 0 0 0 0 0 0 0 0 0 0 0 0 0 0 0 0
0 0 0 0 0 0 0 0 0 0 0 0 0 0 0 0 0 0 0 0 0 0 0 0 0 0 0 0 0 0 0 0 0 0 0 0 0 0 0 0 0 0 0 0 0
0 0 0 0 0 0 0 0 0 0 0 0 0 0 0 0 0 0 0 0 0 0 0 0 0 0 0 0 0 0 0 0 0 0 0 0 0 0 0 0 0 0 0 0 0
0 0 0 0 0 0 0 0 0 0 0 0 0 0 0 0 0 0 0 0 0 0 0 0 0 0 0 0 0 0 0 0 0 0 0 0 0 0 0 0 0 0 0 0 0
0 0 0 0 0 0 0 0 0 0 0 0 0 0 0 0 0 0 0 0 0 0 0 0 0 0 0 0 0 0 0 0 0 0 0 0 0 0 0 0 0 0 0 0 0
CIN
0 0 0 0 0 0 0 0 0 0 0 0 0 0 0 0 0 0 0 0 0 0 0 0 0 0 0 0 0 0 0 0 0 0 0 0 0 0 0 0 0 0 0 0 0
0 0 0 0 0 0 0 0 0 0 0 0 0 0 0 0 0 0 0 0 0 0 0 0 0 0 0 0 0 0 0 0 0 0 0 0 0 0 0 0 0 0 0 0 0
0 0 0 0 0 0 0 0 0 0 0 0 0 0 0 0 0 0 0 0 0 0 0 0 0 0 0 0 0 0 0 0 0 0 0 0 0 0 0 0 0 0 0 0 0
0 0 0 0 0 0 0 0 0 0 0 0 0 0 0 0 0 0 0 0 0 0 0 0 0 0 0 0 0 0 0 0 0 0 0 0 0 0 0 0 0 0 0 0 0
0 0 0 0 0 0 0 0 0 0 0 0 0 0 0 0 0 0 0 0 0 0 0 0 0 0 0 0 0 0 0 0 0 0 0 0 0 0 0 0 0 0 0 0 0
0 0 0 0 0 0 0 0 0 0 0 0 0 0 0 0 0 0 0 0 0 0 0 0 0 0 0 0 0 0 0 0 0 0 0 0 0 0 0 0 0 0 0 0 0
0 0 0 0 0 0 0 0 0 0 0 0 0 0 0 0 0 0 0 0 0 0 0 0 0 0 0 0 0 0 0 0 0 0 0 0 0 0 0 0 0 0 0 0 0
0 0 0 0 0 0 0 0 0 0 0 0 0 0 0 0 0 0 0 0 0 0 0 0 0 0 0 0 0 0 0 0 0 0 0 0 0 0 0 0 0 0 0 0 0
0 0 0 0 0 0 0 0 0 0 0 0 0 0 0 0 0 0 0 0 0 0 0 0 0 0 0 0 0 0 0 0 0 0 0 0 0 0 0 0 0 0 0 0 0
0 0 0 0 0 0 0 0 0 0 0 0 0 0 0 0 0 0 0 0 0 0 0 0 0 0 0 0 0 0 0 0 0 0 0 0 0 0 0 0 0 0 0 0 0
0 0 0 0 0 0 0 0 0 0 0 0 0 0 0 0 0 0 0 0 0 0 0 0 0 0 0 0 0 0 0 0 0 0 0 0 0 0 0 0 0 0 0 0 0
0 0 0 0 0 0 0 0 0 0 0 0 0 0 0 0 0 0 0 0 0 0 0 0 0 0 0 0 0 0 0 0 0 0 0 0 0 0 0 0 0 0 0 0 0
0 0 0 0 0 0 0 0 0 0 0 0 0 0 0 0 0 0 0 0 0 0 0 0 0 0 0 0 0 0 0 0 0 0 0 0 0 0 0 0 0 0 0 0 0
0 0 0 0 0 0 0 0 0 0 0 0 0 0 0 0 0 0 0 0 0 0 0 0 0 0 0 0 0 0 0 0 0 0 0 0 0 0 0 0 0 0 0 0 0
0 0 0 0 0 0 0 0 0 0 0 0 0 0 0 0 0 0 0 0 0 0 0 0 0 0 0 0 0 0 0 0 0 0 0 0 0 0 0 0 0 0 0 0 0
0 0 0 0 0 0 0 0 0 0 0 0 0 0 0 0 0 0 0 0 0 0 0 0 0 0 0 0 0 0 0 0 0 0 0 0 0 0 0 0 0 0 0 0 0
0 0 0 0 0 0 0 0 0 0 0 0 0 0 0 0 0 0 0 0 0 0 0 0 0 0 0 0 0 0 0 0 0 0 0 0 0 0 0 0 0 0 0 0 0
0 0 0 0 0 0 0 0 0 0 0 0 0 0 0 0 0 0 0 0 0 0 0 0 0 0 0 0 0 0 0 0 0 0 0 0 0 0 0 0 0 0 0 0 0
0 0 0 0 0 0 0 0 0 0 0 0 0 0 0 0 0 0 0 0 0 0 0 0 0 0 0 0 0 0 0 0 0 0 0 0 0 0 0 0 0 0 0 0 0
0 0 0 0 0 0 0 0 0 0 0 0 0 0 0 0 0 0 0 0 0 0 0 0 0 0 0 0 0 0 0 0 0 0 0 0 0 0 0 0 0 0 0 0 0
0 0 0 0 0 0 0 0 0 0 0 0 0 0 0 0 0 0 0 0 0 0 0 0 0 0 0 0 0 0 0 0 0 0 0 0 0 0 0 0 0 0 0 0 0
0 0 0 0 0 0 0 0 0 0 0 0 0 0 0 0 0 0 0 0 0 0 0 0 0 0 0 0 0 0 0 0 0 0 0 0 0 0 0 0 0 0 0 0 0
0 0 0 0 0 0 0 0 0 0 0 0 0 0 0 0 0 0 0 0 0 0 0 0 0 0 0 0 0 0 0 0 0 0 0 0 0 0 0 0 0 0 0 0 0
0 0 0 0 0 0 0 0 0 0 0 0 0 0 0 0 0 0 0 0 0 0 0 0 0 0 0 0 0 0 0 0 0 0 0 0 0 0 0 0 0 0 0 0 0
0 0 0 0 0 0 0 0 0 0 0 0 0 0 0 0 0 0 0 0 0 0 0 0 0 0 0 0 0 0 0 0 0 0 0 0 0 0 0 0 0 0 0 0 0
0 0 0 0 0 0 0 0 0 0 0 0 0 0 0 0 0 0 0 0 0 0 0 0 0 0 0 0 0 0 0 0 0 0 0 0 0 0 0 0 0 0 0 0 0
0 0 0 0 0 0 0 0 0 0 0 0 0 0 0 0 0 0 0 0 0 0 0 0 0 0 0 0 0 0 0 0 0 0 0 0 0 0 0 0 0 0 0 0 0
Wind_Speed
22 23 25 24 24 24 24 24 24 23 22 21 20 19 18 18 18 15 15 17 18 18 18 18 15 17 16 15 15 15 17 19 19 17 19 22 26 20 24 23 28 20 22 26 30
23 24 24 23 23 23 23 23 24 23 22 21 20 19 18 18 16 15 17 18 18 18 17 16 17 18 16 15 15 16 18 19 16 16 21 24 23 28 26 32 26 28 27 30 24
21 24 23 22 23 22 22 22 23 23 22 20 19 19 19 18 16 16 17 18 18 17 17 19 19 18 18 17 16 16 18 17 19 19 22 24 26 23 27 29 29 31 32 31 28
22 23 22 22 22 22 22 22 22 22 21 20 19 18 19 18 17 18 18 18 19 19 18 18 18 18 18 18 19 20 18 17 20 21 27 27 26 26 22 25 32 27 24 24 25
22 22 21 21 21 22 22 21 21 22 21 19 18 18 17 17 17 17 18 18 18 17 17 18 17 19 19 20 22 17 21 23 25 33 30 23 22 20 22 25 25 24 25 25 25
21 21 20 21 22 22 22 22 21 21 20 19 17 17 17 16 17 16 17 16 16 16 16 16 16 17 19 19 20 22 25 29 27 26 19 22 21 18 24 22 24 25 25 26 26
20 21 21 21 21 22 22 21 21 21 20 18 17 16 15 16 16 17 16 16 16 15 16 16 16 17 17 21 21 23 27 25 18 24 21 21 20 18 29 23 22 23 24 25 26
20 21 21 21 21 22 22 21 21 20 19 17 16 16 15 17 17 15 16 16 16 17 16 16 17 17 18 21 22 23 21 20 18 25 23 22 20 29 32 19 22 22 23 24 26
21 21 21 21 21 21 21 21 20 19 18 17 15 16 16 15 15 16 15 17 18 17 18 18 18 18 19 21 23 22 20 21 25 22 26 25 21 29 22 19 20 22 22 23 24
21 21 20 20 21 20 20 20 18 16 15 15 16 16 17 17 16 16 16 17 17 20 18 18 19 21 20 20 23 22 23 21 24 26 29 22 22 22 21 19 19 21 22 23 24
22 21 21 20 20 19 18 18 17 16 16 16 17 14 15 16 16 16 18 19 18 19 20 20 21 24 20 16 18 20 22 25 25 19 24 20 19 19 19 20 20 21 22 23 24
22 22 21 20 19 18 17 18 17 16 14 14 14 15 16 16 17 18 19 19 20 22 20 20 21 19 14 17 19 21 23 24 22 18 24 18 19 17 18 18 19 20 21 22 24
21 21 20 19 18 16 16 16 15 14 15 17 16 15 16 16 18 19 19 20 20 19 19 18 17 16 17 19 23 25 20 22 22 27 20 17 19 17 17 17 18 19 20 21 23
19 20 19 18 17 16 16 15 15 14 17 20 19 18 17 16 19 18 19 18 18 18 19 19 19 15 18 21 21 24 19 25 27 29 25 19 30 18 17 20 20 22 23 23 24
17 18 17 17 16 18 16 16 16 16 20 19 18 17 16 17 17 17 16 17 18 20 19 19 19 20 22 19 18 22 26 25 24 24 26 23 23 26 16 22 24 25 28 27 26
17 17 18 16 15 16 16 15 15 19 23 17 16 17 16 16 17 16 18 18 17 18 19 20 19 19 18 18 20 24 24 26 21 22 25 24 22 24 20 19 22 27 31 32 31
18 18 18 17 17 17 15 15 18 22 17 18 17 17 16 17 17 18 18 17 18 18 19 20 18 18 20 20 19 26 28 27 26 27 26 21 27 29 17 17 21 29 32 33 36
16 15 15 15 16 15 16 18 22 19 20 17 16 16 17 18 17 17 17 18 19 17 18 18 18 20 22 19 22 24 24 26 31 30 31 28 27 26 15 16 21 29 32 35 38
13 14 15 16 14 14 15 21 20 19 19 19 18 19 19 18 16 16 18 18 18 19 18 20 17 18 18 20 21 23 25 22 27 27 32 26 25 25 16 20 25 33 36 39 38
10 11 13 15 13 13 16 19 18 18 18 17 18 18 16 17 17 17 17 16 16 17 18 17 23 19 19 19 21 22 19 27 27 34 39 32 34 31 21 23 30 36 41 41 40
12 12 13 14 13 13 16 16 15 15 15 16 16 16 16 17 17 17 17 17 16 17 18 19 19 22 22 23 24 25 24 24 25 26 35 42 35 27 23 23 32 37 40 38 40
13 13 15 12 14 14 14 14 14 14 15 15 15 15 16 16 17 18 17 18 15 18 20 19 21 24 24 24 21 21 24 24 29 31 29 35 41 24 19 24 32 41 44 42 41
13 12 15 12 16 15 14 14 14 15 16 16 15 16 16 16 18 17 17 16 15 19 19 18 22 29 29 25 23 25 24 23 25 28 33 36 38 24 25 32 43 45 44 43 47
14 15 16 15 15 13 13 14 15 16 16 17 17 17 17 18 19 19 18 16 16 18 18 20 22 25 32 30 27 29 26 24 27 35 36 35 41 35 36 42 48 48 45 47 48
16 16 15 17 17 15 16 16 17 18 18 18 19 18 18 20 20 21 20 19 18 18 19 22 28 28 28 28 29 31 31 28 30 30 37 39 39 40 40 45 45 44 48 51 54
17 16 16 16 17 18 20 19 19 19 19 21 21 19 19 22 22 24 21 21 23 19 21 22 31 31 35 32 32 35 33 30 28 31 33 35 41 36 38 38 43 46 51 55 58
18 17 17 19 19 20 21 20 21 18 20 20 20 20 23 23 21 21 20 21 21 23 23 25 29 34 39 35 39 42 32 27 30 26 29 37 37 38 42 42 43 49 52 54 54
Wind_Direction
230 227 222 228 230 232 234 233 229 228 231 237 242 248 252 254 252 255 257 259 260 267 270 269 292 289 299 328 329 348 331 328 334 343 344 344 335 352 343 341 336 350 344 331 320
226 223 217 225 226 227 228 226 224 224 228 235 241 246 249 253 249 255 259 260 265 273 279 281 286 287 308 325 335 332 326 330 348 354 339 339 344 334 341 328 341 331 327 322 340
219 209 213 220 220 221 220 220 220 222 226 233 240 245 248 246 250 256 262 263 269 276 281 274 276 293 301 310 325 334 329 344 342 343 340 339 336 344 338 335 336 329 322 323 326
207 204 210 215 215 216 215 216 218 220 225 232 239 244 247 240 248 255 260 263 264 270 278 284 291 301 309 315 316 318 331 342 339 339 327 327 330 334 343 339 327 339 347 350 345
196 200 207 211 214 213 214 215 217 220 225 232 239 245 239 245 255 256 260 265 269 279 287 287 300 303 307 308 303 328 326 324 324 294 318 337 341 347 346 353 3 4 0 357 357
191 197 204 209 209 213 213 215 217 219 224 230 238 241 239 243 252 259 262 271 280 289 297 298 304 312 308 312 314 316 315 310 325 322 356 344 343 353 349 2 0 2 1 0 359
189 194 199 204 210 213 214 216 218 219 224 231 238 238 243 248 258 261 265 270 282 293 289 308 314 315 323 306 318 319 316 324 342 331 344 348 343 354 334 358 357 356 357 357 356
193 198 203 207 210 211 213 215 217 219 224 233 241 239 245 253 260 269 275 281 287 290 302 313 318 321 323 318 320 322 333 334 339 329 337 345 342 323 324 359 355 359 0 0 359
195 200 203 205 207 208 212 215 217 220 226 232 238 241 244 260 264 273 283 279 281 293 298 307 317 320 320 320 318 323 328 330 323 346 333 341 341 335 355 2 2 1 0 0 359
189 197 200 202 203 208 212 212 216 223 229 235 241 239 248 251 266 275 285 287 286 284 298 305 311 309 319 322 313 320 322 332 330 332 331 346 349 352 1 8 6 4 1 359 357
183 192 197 200 205 209 208 208 211 223 231 234 238 253 255 262 275 281 289 280 288 293 294 303 304 299 318 333 332 329 328 325 331 351 345 352 354 1 6 8 7 3 -0 357 355
184 190 196 200 204 207 212 215 222 230 236 249 259 266 270 272 273 282 296 283 284 284 296 305 307 306 338 334 331 331 329 334 342 353 343 349 350 5 7 6 5 3 360 357 352
187 191 198 202 205 212 218 224 236 244 243 246 262 275 276 283 281 285 291 282 285 292 296 306 312 332 330 327 322 325 338 339 339 338 353 356 344 353 6 9 7 5 3 359 355
189 192 198 206 214 224 225 240 247 259 248 247 259 272 284 291 284 287 290 284 282 287 290 304 304 331 328 327 337 332 346 334 333 331 335 346 328 340 349 351 355 354 351 349 349
200 200 206 217 222 222 236 247 250 262 244 255 268 282 287 286 277 282 303 287 291 286 291 303 309 319 320 339 350 338 336 338 338 334 333 337 331 337 347 340 343 346 343 342 342
199 204 204 222 232 236 243 252 259 245 236 265 276 272 277 274 274 285 293 312 301 294 299 303 318 336 340 347 349 343 346 343 352 345 337 340 336 336 336 339 343 344 342 340 338
204 208 213 229 236 242 251 248 246 237 264 265 268 271 273 273 289 293 295 301 299 309 311 313 330 338 347 347 356 347 343 340 339 338 338 345 334 332 342 350 347 343 342 340 341
226 239 246 250 252 258 252 243 232 255 253 271 279 284 278 277 285 292 299 305 317 320 327 330 332 339 346 359 348 350 352 344 334 335 333 335 333 340 350 350 346 345 341 340 337
254 256 261 262 277 275 263 245 253 262 263 263 269 267 269 281 299 311 310 313 318 327 331 331 343 351 358 357 355 350 345 350 338 337 333 338 339 341 338 336 338 338 339 337 337
292 283 277 275 294 283 263 255 265 270 274 278 276 284 293 297 306 313 317 323 334 340 343 346 332 345 347 355 355 349 355 341 341 332 329 332 331 331 324 328 334 336 338 339 339
311 297 288 289 296 288 275 284 290 295 296 298 301 304 306 310 312 315 322 326 332 336 347 344 342 338 343 342 340 341 341 342 340 335 328 327 331 339 332 333 335 336 338 337 337
316 308 295 316 290 292 301 302 303 305 304 308 315 315 315 317 318 320 320 323 338 341 337 343 340 333 336 339 342 342 338 336 330 330 328 326 324 338 341 338 337 334 334 334 334
327 314 317 326 294 307 311 312 311 308 307 313 320 320 323 321 318 321 324 334 341 340 339 344 334 330 332 338 342 337 338 338 335 331 322 322 325 341 333 329 330 332 332 331 330
335 320 314 325 318 320 317 316 314 310 315 317 319 320 319 317 318 322 324 335 339 341 346 342 331 328 324 327 334 330 330 330 327 322 321 314 316 319 322 325 328 330 330 330 329
335 329 326 314 315 322 318 317 314 312 318 319 316 315 317 316 317 316 321 325 331 336 337 334 323 324 324 324 324 322 321 318 313 314 314 319 319 321 325 326 328 330 331 330 329
339 334 336 329 324 320 316 312 313 315 316 314 312 317 318 315 316 316 319 319 320 328 326 330 321 324 322 328 326 322 322 320 314 313 310 311 314 319 325 330 330 331 331 329 329
349 348 336 323 322 317 315 315 314 323 322 323 322 318 313 316 323 324 324 323 322 319 318 322 321 322 318 326 324 322 331 324 325 325 322 319 321 329 329 330 331 331 330 330 330